Wetbulb
70.52 70.89 71.07 70.42 69.83 69.06 68.26 68.86 70.83 71.87 71.89 73.25 73.24 73.35 73.42 73.83 70.85 70.02 71.29 70.01 72.72 72.00 71.47 71.08 70.94 71.40 72.30 71.48 72.20 73.39 73.41 73.28 73.58
71.62 71.56 71.68 71.77 71.47 71.24 70.85 69.19 68.85 69.36 70.55 71.52 72.29 72.98 72.81 70.46 68.92 68.52 69.59 70.90 73.04 72.33 71.39 71.26 70.81 70.96 71.26 72.21 71.36 72.26 73.20 73.56 73.18
72.19 72.47 72.52 72.46 72.21 71.46 71.00 70.56 70.17 69.73 68.70 68.36 68.53 69.27 70.59 69.13 68.29 68.22 70.04 72.69 72.51 72.59 71.53 70.97 71.08 70.61 70.67 71.05 71.71 71.63 71.82 72.50 72.60
71.38 70.95 70.81 70.27 70.40 69.82 69.18 68.96 69.05 68.74 68.43 68.25 67.83 67.71 68.63 65.27 66.93 67.42 68.98 72.64 71.98 72.04 72.18 70.96 70.54 70.85 70.40 70.37 70.88 71.53 72.08 71.68 71.66
66.16 65.30 65.94 65.86 65.80 65.33 65.43 65.73 66.94 67.71 68.21 67.99 68.12 68.84 69.27 63.40 61.28 66.77 67.94 69.99 69.54 70.08 70.97 71.67 70.84 70.15 70.49 70.59 70.09 70.40 71.38 71.76 71.60
58.37 61.08 62.01 62.02 62.23 61.93 62.43 63.70 66.11 67.86 69.28 68.49 69.67 69.96 64.73 64.18 62.90 64.59 67.78 67.34 67.50 67.70 68.79 70.53 71.74 70.79 69.97 70.00 70.62 70.19 70.29 71.35 71.56
57.64 60.45 63.89 63.13 62.91 64.61 64.52 64.96 64.18 60.63 55.13 57.00 62.83 59.95 59.81 61.85 63.22 63.07 67.06 66.92 67.01 67.25 67.18 67.42 70.33 71.69 70.57 70.28 70.05 70.31 70.65 70.47 71.16
51.68 51.50 52.05 51.52 57.64 51.54 53.16 51.88 51.81 50.79 50.90 50.81 50.03 51.15 52.68 56.67 59.47 65.42 66.17 65.48 65.48 66.16 66.60 67.13 67.19 69.93 71.64 71.04 70.51 70.53 70.66 71.40 71.04
49.39 49.75 50.23 49.82 49.79 48.39 48.97 49.12 48.84 48.92 49.27 47.77 47.85 48.08 48.82 49.78 51.54 61.99 65.02 62.61 61.67 61.80 64.37 66.02 66.66 67.21 68.84 71.47 71.38 70.98 70.50 70.76 71.52
49.05 48.33 48.73 48.43 48.59 47.81 47.65 47.42 47.67 47.43 48.28 48.46 47.84 47.25 47.53 48.37 49.96 51.28 63.34 62.19 60.18 60.34 60.85 62.57 64.99 65.85 66.82 68.16 69.76 71.18 71.35 70.68 70.91
48.97 48.46 48.55 48.04 47.94 47.45 47.11 46.17 46.65 47.03 47.51 48.00 47.86 47.05 46.98 47.68 48.59 50.23 51.33 63.46 63.46 61.04 60.38 60.39 61.14 63.06 65.59 66.64 67.49 69.09 71.29 71.02 71.38
49.32 48.75 48.07 47.83 48.34 48.43 47.87 47.19 47.55 46.94 48.02 45.87 47.05 47.35 47.22 47.71 47.17 47.90 49.90 52.47 60.30 63.85 61.37 60.01 60.46 61.01 62.94 65.35 66.69 67.64 68.47 71.64 71.03
49.28 48.87 48.04 48.12 48.54 48.27 47.31 46.71 46.16 45.69 45.34 44.68 45.58 45.71 46.39 46.81 46.98 48.30 48.65 49.79 52.00 56.38 62.26 59.69 60.64 60.71 61.24 61.77 64.42 66.77 67.53 68.54 70.97
49.19 48.67 48.19 48.55 48.35 47.86 47.48 46.57 45.50 44.42 44.54 45.77 44.52 44.78 45.44 46.21 49.54 46.66 47.47 48.60 50.74 50.89 57.85 61.57 61.70 60.31 60.99 61.81 61.94 63.61 66.25 67.38 69.41
48.56 48.76 48.21 48.11 47.23 47.09 46.32 44.70 45.17 44.54 44.40 47.68 46.73 44.14 44.95 45.46 45.55 46.19 48.54 48.50 50.22 50.71 51.63 53.98 55.31 60.37 59.73 61.12 60.11 59.88 62.10 65.55 67.11
47.44 47.55 47.07 47.09 45.97 45.21 45.93 44.89 43.86 43.22 44.16 42.31 42.34 42.69 45.90 44.32 43.83 44.59 45.89 46.50 47.27 49.11 50.62 51.68 52.63 52.87 61.65 62.90 60.41 59.73 60.64 62.81 64.38
47.94 46.26 46.26 46.04 44.94 44.73 44.70 44.17 43.05 42.76 43.38 39.90 39.25 37.21 40.21 42.22 44.47 43.68 44.71 43.90 44.53 46.07 47.20 46.45 47.88 49.15 50.24 53.27 60.28 60.05 58.30 59.09 59.55
47.09 46.30 45.19 44.61 44.30 43.64 43.80 43.59 42.80 40.67 41.50 41.50 39.14 35.73 34.34 39.71 42.17 41.16 42.94 42.64 43.31 43.13 44.66 45.76 46.41 46.38 46.11 50.81 52.77 57.87 60.31 58.98 59.29
47.18 46.57 45.69 44.50 44.03 43.25 43.02 44.83 41.49 40.37 38.67 40.24 43.80 40.13 38.50 36.85 36.41 39.59 40.84 42.32 43.58 42.70 43.46 44.18 44.87 44.85 45.07 51.02 55.15 58.15 59.86 59.00 58.48
47.21 46.44 45.17 44.24 43.79 43.20 42.41 41.80 40.97 40.36 38.90 38.25 38.41 38.01 38.26 38.16 37.81 36.10 38.52 40.04 41.44 42.10 42.77 43.58 43.99 44.57 45.15 45.66 49.43 56.34 56.96 57.34 57.44
MSLP
1016.84 1016.84 1016.82 1016.85 1016.83 1016.79 1016.76 1016.68 1016.61 1016.51 1016.45 1016.46 1016.27 1015.99 1015.69 1015.34 1014.98 1015.33 1015.55 1015.84 1016.01 1016.22 1016.29 1016.26 1016.21 1016.13 1016.05 1015.90 1015.80 1015.70 1015.71 1015.58 1015.65
1017.00 1017.00 1016.99 1016.98 1017.00 1016.98 1016.96 1016.94 1016.86 1016.79 1016.72 1016.70 1016.56 1016.31 1015.96 1015.61 1015.32 1015.33 1015.70 1015.96 1016.01 1016.26 1016.34 1016.41 1016.44 1016.37 1016.33 1016.26 1016.13 1016.09 1016.06 1015.97 1016.01
1017.16 1017.16 1017.19 1017.14 1017.21 1017.28 1017.31 1017.27 1017.14 1017.02 1016.93 1016.82 1016.71 1016.55 1016.30 1015.88 1015.70 1015.66 1015.94 1016.05 1016.19 1016.31 1016.44 1016.46 1016.52 1016.54 1016.54 1016.52 1016.45 1016.37 1016.37 1016.34 1016.35
1017.49 1017.60 1017.65 1017.65 1017.65 1017.66 1017.59 1017.45 1017.31 1017.16 1017.04 1016.91 1016.68 1016.51 1016.45 1016.40 1016.08 1015.79 1016.22 1016.19 1016.32 1016.45 1016.52 1016.54 1016.56 1016.60 1016.65 1016.65 1016.64 1016.60 1016.59 1016.57 1016.61
1017.99 1018.05 1018.00 1017.97 1017.92 1017.84 1017.74 1017.58 1017.36 1017.17 1017.03 1016.94 1016.64 1016.44 1016.45 1016.35 1016.05 1016.47 1016.48 1016.37 1016.36 1016.54 1016.59 1016.56 1016.55 1016.62 1016.67 1016.72 1016.71 1016.74 1016.74 1016.71 1016.78
1018.24 1018.21 1018.15 1018.06 1017.95 1017.90 1017.75 1017.62 1017.42 1017.12 1016.86 1016.97 1016.72 1016.43 1016.35 1016.06 1016.03 1016.44 1016.46 1016.51 1016.63 1016.75 1016.74 1016.65 1016.57 1016.54 1016.64 1016.72 1016.77 1016.83 1016.86 1016.90 1017.00
1018.20 1018.28 1018.21 1018.10 1017.99 1017.88 1017.79 1017.73 1017.68 1017.56 1017.41 1017.17 1016.82 1016.68 1016.41 1016.23 1016.21 1016.58 1016.56 1016.47 1016.69 1016.85 1016.87 1016.82 1016.68 1016.53 1016.53 1016.64 1016.73 1016.81 1016.92 1016.99 1017.07
1018.34 1018.53 1018.61 1018.56 1018.34 1018.36 1018.21 1018.11 1018.04 1017.94 1017.73 1017.52 1017.25 1017.00 1016.88 1016.66 1016.42 1016.68 1016.69 1016.67 1016.73 1016.86 1016.93 1016.87 1016.77 1016.64 1016.43 1016.43 1016.56 1016.67 1016.76 1016.91 1017.01
1018.69 1018.80 1018.83 1018.93 1018.80 1018.79 1018.64 1018.56 1018.32 1018.20 1017.93 1017.76 1017.62 1017.40 1017.28 1017.08 1016.84 1016.89 1016.63 1016.65 1016.70 1016.81 1016.86 1016.81 1016.76 1016.66 1016.53 1016.36 1016.32 1016.44 1016.62 1016.75 1016.84
1018.93 1019.02 1019.09 1019.16 1019.11 1019.10 1019.10 1018.93 1018.79 1018.64 1018.37 1018.11 1017.92 1017.72 1017.41 1017.21 1017.05 1016.89 1016.63 1016.56 1016.58 1016.58 1016.64 1016.67 1016.65 1016.57 1016.48 1016.38 1016.27 1016.30 1016.40 1016.55 1016.65
1019.23 1019.33 1019.44 1019.47 1019.45 1019.38 1019.36 1019.33 1019.22 1019.03 1018.75 1018.52 1018.17 1017.89 1017.62 1017.33 1017.07 1016.84 1016.65 1016.41 1016.36 1016.36 1016.34 1016.42 1016.50 1016.49 1016.40 1016.28 1016.20 1016.17 1016.19 1016.30 1016.38
1019.41 1019.65 1019.81 1019.79 1019.68 1019.60 1019.55 1019.46 1019.35 1019.30 1018.98 1018.92 1018.46 1018.06 1017.73 1017.49 1017.18 1016.88 1016.59 1016.34 1016.18 1016.15 1016.20 1016.31 1016.27 1016.29 1016.28 1016.21 1016.11 1016.03 1016.02 1015.96 1016.08
1019.62 1019.94 1020.02 1019.88 1019.85 1019.80 1019.82 1019.90 1019.73 1019.61 1019.37 1019.08 1018.65 1018.28 1017.84 1017.53 1017.15 1016.72 1016.50 1016.35 1016.18 1015.97 1015.90 1015.98 1016.02 1016.05 1016.14 1016.05 1015.91 1015.84 1015.80 1015.79 1015.71
1019.80 1019.97 1019.98 1019.95 1020.07 1020.07 1020.15 1020.15 1020.04 1019.91 1019.65 1019.25 1018.74 1018.45 1018.08 1017.48 1016.83 1016.68 1016.34 1016.05 1015.88 1015.88 1015.79 1015.81 1015.92 1016.06 1015.93 1015.85 1015.76 1015.70 1015.62 1015.56 1015.49
1019.85 1020.03 1020.06 1020.05 1020.25 1020.39 1020.35 1020.35 1020.20 1020.13 1019.89 1019.48 1019.05 1018.51 1017.98 1017.33 1017.09 1016.64 1015.96 1015.68 1015.61 1015.59 1015.59 1015.63 1015.74 1015.70 1015.61 1015.63 1015.58 1015.54 1015.51 1015.41 1015.28
1019.82 1020.07 1020.12 1020.20 1020.41 1020.43 1020.39 1020.33 1020.34 1020.31 1019.96 1019.84 1019.45 1018.71 1017.78 1017.32 1017.06 1016.68 1016.34 1015.97 1015.73 1015.69 1015.56 1015.49 1015.44 1015.44 1015.27 1015.19 1015.31 1015.28 1015.28 1015.33 1015.29
1019.69 1019.96 1020.12 1020.15 1020.32 1020.34 1020.34 1020.30 1020.42 1020.26 1020.02 1020.19 1020.00 1019.12 1018.34 1017.26 1017.02 1016.76 1016.49 1016.23 1016.02 1015.88 1015.52 1015.40 1015.34 1015.29 1015.28 1015.16 1014.98 1015.01 1015.08 1015.12 1015.09
1019.61 1019.78 1019.92 1020.04 1020.11 1020.24 1020.19 1020.12 1020.18 1020.24 1020.06 1019.99 1020.36 1019.83 1019.30 1018.41 1017.49 1017.19 1016.86 1016.56 1016.30 1016.06 1015.70 1015.41 1015.28 1015.15 1015.09 1015.03 1015.03 1014.87 1014.76 1014.69 1014.73
1019.21 1019.37 1019.53 1019.69 1019.79 1019.92 1019.90 1019.83 1019.96 1020.10 1020.26 1019.96 1019.73 1019.64 1019.48 1019.25 1017.75 1017.30 1017.08 1016.68 1016.37 1016.05 1015.60 1015.42 1015.19 1014.95 1014.82 1014.70 1014.66 1014.71 1014.72 1014.71 1014.63
1018.79 1018.97 1019.15 1019.37 1019.55 1019.72 1019.70 1019.67 1019.76 1019.81 1019.94 1019.92 1019.77 1019.48 1019.22 1018.98 1018.78 1017.61 1017.18 1016.65 1016.31 1016.02 1015.75 1015.26 1015.06 1014.79 1014.75 1014.74 1014.61 1014.46 1014.50 1014.60 1014.55
Wind_Speed
12 13 13 13 13 13 13 12 12 12 11 12 11 12 13 14 6 9 10 8 12 11 11 11 11 12 13 13 12 12 11 12 13
11 11 10 11 12 13 12 12 11 10 9 9 10 12 14 9 8 7 8 6 12 8 9 9 9 10 11 11 10 10 11 11 11
11 14 15 14 14 14 13 13 11 9 8 8 9 10 12 10 8 8 6 10 11 11 6 6 7 7 8 9 9 9 8 7 10
15 16 15 14 14 13 12 12 11 9 7 6 6 8 10 7 5 4 4 10 10 9 10 3 4 4 5 6 7 7 7 4 9
14 13 12 11 12 11 11 11 10 9 7 7 8 7 8 5 6 5 4 10 11 9 9 9 2 1 2 3 4 5 6 5 9
8 8 9 10 8 7 7 9 11 14 7 6 11 10 3 3 1 3 9 11 10 10 9 9 8 3 1 0 1 2 4 5 8
5 5 12 10 14 12 13 14 13 10 5 4 7 4 6 4 4 3 8 11 10 10 10 9 8 5 3 3 2 1 2 3 5
4 3 3 4 8 4 6 6 4 7 5 5 5 6 6 4 4 4 8 9 8 10 11 10 9 8 7 5 5 5 4 5 6
4 3 4 4 4 6 5 4 6 7 7 7 7 7 5 4 4 2 4 3 4 6 10 11 10 9 9 8 8 7 6 6 7
3 4 4 4 4 4 5 5 6 6 7 7 7 7 7 6 4 3 4 1 3 5 8 10 11 11 10 10 10 8 8 8 8
4 5 5 5 5 5 5 5 5 5 5 7 7 7 7 7 7 4 4 8 8 8 9 9 10 12 12 12 11 10 9 10 9
5 5 5 4 4 5 5 5 5 5 5 6 6 6 7 6 7 6 4 5 6 9 8 9 12 12 12 14 13 11 11 11 12
5 4 3 3 3 3 4 4 4 4 5 5 6 5 5 7 7 6 5 4 4 5 5 8 14 11 13 15 14 14 13 12 14
4 3 2 3 3 3 3 3 3 4 5 6 5 5 6 7 6 7 7 7 5 3 5 5 5 9 13 12 11 13 14 14 13
2 2 3 3 3 3 3 3 3 3 4 6 8 6 6 6 6 7 7 4 4 3 3 3 3 8 14 12 11 11 13 14 15
1 1 2 3 2 2 3 2 3 3 4 4 5 5 11 8 5 5 5 6 6 6 4 3 3 4 11 10 12 11 11 11 14
0 1 2 3 2 4 4 3 3 2 3 3 4 5 6 5 7 6 6 7 6 6 6 5 5 4 3 6 9 8 12 15 16
2 3 2 3 2 3 4 4 4 3 3 3 3 4 4 8 6 5 5 7 5 5 6 7 7 6 4 5 6 9 13 18 15
4 3 3 3 3 4 4 3 2 3 4 3 4 5 4 6 9 3 5 6 7 8 6 5 6 7 5 7 6 9 5 9 12
5 3 3 4 3 3 4 5 5 3 2 3 3 3 3 4 7 11 8 4 5 5 5 5 5 6 5 4 5 9 11 9 12
Wind_Direction
61 58 56 54 52 48 45 40 37 23 30 24 21 358 347 333 325 99 84 88 70 57 60 59 59 57 50 52 46 53 75 90 93
60 56 53 54 54 49 44 41 39 33 28 14 8 357 345 342 323 76 87 78 69 59 58 61 62 64 60 53 57 52 58 86 87
56 55 48 52 53 45 35 29 26 26 22 15 359 344 333 333 330 66 80 70 61 45 52 56 63 65 70 64 61 56 52 83 91
65 54 47 47 46 42 32 20 11 8 357 352 341 328 321 325 317 47 64 69 52 34 20 33 46 66 69 74 69 63 54 83 108
62 59 54 47 46 38 28 11 356 345 322 319 311 315 306 274 300 78 64 52 43 20 7 5 314 38 76 74 76 71 58 81 120
99 79 60 44 25 36 21 358 344 354 5 281 299 319 287 331 0 92 68 50 28 10 2 354 348 248 268 32 88 98 87 90 141
114 122 48 21 23 17 22 16 25 1 352 341 332 341 343 345 10 75 68 56 31 4 352 346 339 336 255 250 255 223 183 153 164
52 55 41 24 17 10 17 6 9 352 347 342 344 350 351 346 5 98 78 60 32 358 345 339 332 320 294 248 252 243 227 216 201
49 57 44 41 7 12 11 1 5 356 354 353 358 344 346 339 341 118 108 100 42 349 324 325 327 321 307 289 254 239 239 227 228
58 56 44 38 21 15 11 4 11 353 349 354 345 334 334 332 333 331 283 236 259 291 312 308 311 313 309 297 292 267 231 231 233
44 51 39 24 29 10 20 9 1 350 350 340 334 332 336 333 329 312 308 252 250 275 292 303 307 304 302 298 288 287 254 236 231
69 60 46 17 24 10 12 358 356 353 336 334 328 322 321 321 315 310 305 308 305 255 280 294 306 307 305 299 292 286 280 245 235
60 66 50 33 16 4 8 358 349 342 333 317 303 308 322 311 295 289 294 301 295 287 242 296 304 297 303 296 285 285 284 276 244
79 68 16 51 13 2 13 336 354 334 324 312 316 324 302 287 305 301 283 271 270 266 275 314 275 283 306 304 299 293 285 282 279
46 0 14 47 16 356 352 332 326 320 310 321 310 292 295 299 291 285 279 272 290 281 239 233 233 277 295 280 289 302 289 284 281
172 311 342 6 346 305 296 300 326 316 311 318 322 309 287 286 314 332 349 345 341 328 292 255 237 253 259 272 268 294 301 308 306
143 288 340 313 346 327 318 315 294 277 312 295 304 322 319 335 342 329 338 335 339 320 320 318 301 289 283 271 260 270 280 283 286
242 261 285 319 318 290 278 280 278 276 294 291 224 332 267 325 279 287 297 298 301 314 326 331 324 319 310 301 296 280 270 274 274
223 247 258 267 267 281 275 294 308 330 289 303 263 257 261 292 303 291 294 285 283 291 293 296 290 283 276 267 293 313 275 263 259
222 228 255 269 275 283 299 303 292 274 272 268 291 286 281 275 283 289 297 292 287 278 277 270 270 280 292 294 291 293 295 327 314